N80991 KSRQ-KSRQ

Flight info

Callsign N80991
Flight time 0h 52m
Altitude 2500
Route VFR EAST
Aircraft C172/L-VGD/C

Departure

Time 2026-04-26 18:04
Airport Sarasota Bradenton International Airport (KSRQ)

Arrival

Time 2026-04-26 18:57
Airport Sarasota Bradenton International Airport (KSRQ)
Time Latitude Longitude Altitude Speed Heading
2026-04-26 17:55 27.39346 -82.54815 20 ft 0 kts 269°
2026-04-26 17:57 27.39345 -82.54823 20 ft 3 kts 264°
2026-04-26 17:57 27.39338 -82.54861 20 ft 6 kts 240°
2026-04-26 17:57 27.39292 -82.54876 20 ft 8 kts 181°
2026-04-26 17:57 27.39222 -82.54876 20 ft 11 kts 180°
2026-04-26 17:58 27.39328 -82.55092 20 ft 16 kts 310°
2026-04-26 17:59 27.39481 -82.55268 20 ft 16 kts 313°
2026-04-26 17:59 27.39568 -82.55365 20 ft 18 kts 313°
2026-04-26 17:59 27.39645 -82.55454 20 ft 14 kts 315°
2026-04-26 17:59 27.39707 -82.55523 20 ft 10 kts 319°
2026-04-26 18:00 27.39757 -82.55579 20 ft 9 kts 314°
2026-04-26 18:00 27.39801 -82.55635 20 ft 9 kts 288°
2026-04-26 18:00 27.39791 -82.55663 20 ft 0 kts 222°
2026-04-26 18:00 27.39778 -82.55677 20 ft 6 kts 224°
2026-04-26 18:01 27.39731 -82.55717 19 ft 8 kts 177°
2026-04-26 18:01 27.39708 -82.55702 19 ft 0 kts 136°
2026-04-26 18:02 27.39698 -82.55691 19 ft 2 kts 135°
2026-04-26 18:02 27.39692 -82.55685 20 ft 7 kts 135°
2026-04-26 18:02 27.39451 -82.55409 23 ft 68 kts 133°
2026-04-26 18:02 27.39149 -82.54964 165 ft 72 kts 138°
2026-04-26 18:03 27.38842 -82.54576 338 ft 66 kts 139°
2026-04-26 18:03 27.38589 -82.54099 462 ft 78 kts 80°
2026-04-26 18:03 27.38715 -82.53405 473 ft 97 kts 73°
2026-04-26 18:03 27.38891 -82.52657 594 ft 99 kts 72°
2026-04-26 18:04 27.38989 -82.51848 624 ft 108 kts 95°
2026-04-26 18:04 27.38957 -82.51001 710 ft 109 kts 94°
2026-04-26 18:04 27.38909 -82.50150 800 ft 109 kts 93°
2026-04-26 18:05 27.38808 -82.48425 1007 ft 110 kts 93°
2026-04-26 18:05 27.38728 -82.47549 1027 ft 118 kts 103°
2026-04-26 18:05 27.38494 -82.46642 1019 ft 122 kts 108°
2026-04-26 18:05 27.38297 -82.45686 1018 ft 125 kts 103°
2026-04-26 18:06 27.38129 -82.44720 1005 ft 126 kts 101°
2026-04-26 18:06 27.38078 -82.43735 1016 ft 126 kts 91°
2026-04-26 18:06 27.38172 -82.42758 989 ft 127 kts 77°
2026-04-26 18:06 27.38344 -82.41778 955 ft 129 kts 68°
2026-04-26 18:07 27.38472 -82.40798 1028 ft 123 kts 83°
2026-04-26 18:07 27.38562 -82.39839 1020 ft 125 kts 80°
2026-04-26 18:07 27.38589 -82.38833 905 ft 132 kts 95°
2026-04-26 18:07 27.38494 -82.38156 861 ft 131 kts 101°
2026-04-26 18:08 27.38358 -82.36814 822 ft 130 kts 90°
2026-04-26 18:08 27.38439 -82.35814 869 ft 121 kts 76°
2026-04-26 18:08 27.38611 -82.34872 813 ft 127 kts 74°
2026-04-26 18:08 27.38882 -82.33938 811 ft 126 kts 67°
2026-04-26 18:09 27.39181 -82.33031 897 ft 117 kts 66°
2026-04-26 18:09 27.39473 -82.32185 963 ft 116 kts 65°
2026-04-26 18:09 27.39686 -82.31297 961 ft 120 kts 81°
2026-04-26 18:09 27.39833 -82.30381 992 ft 119 kts 73°
2026-04-26 18:10 27.39980 -82.29446 990 ft 122 kts 78°
2026-04-26 18:10 27.40054 -82.28510 1050 ft 121 kts 86°
2026-04-26 18:10 27.40098 -82.27565 1076 ft 121 kts 77°
2026-04-26 18:10 27.40235 -82.26889 1095 ft 120 kts 68°
2026-04-26 18:11 27.40326 -82.26586 1097 ft 121 kts 68°
2026-04-26 18:11 27.40524 -82.25616 1011 ft 128 kts 72°
2026-04-26 18:11 27.41077 -82.24892 1014 ft 122 kts 21°
2026-04-26 18:11 27.41896 -82.24703 1087 ft 112 kts 355°
2026-04-26 18:12 27.42659 -82.24832 1080 ft 113 kts 338°
2026-04-26 18:12 27.43378 -82.25144 1117 ft 109 kts 329°
2026-04-26 18:12 27.44100 -82.25449 1130 ft 112 kts 336°
2026-04-26 18:12 27.44856 -82.25702 1151 ft 112 kts 338°
2026-04-26 18:13 27.45616 -82.25966 1119 ft 113 kts 330°
2026-04-26 18:13 27.46236 -82.26490 1137 ft 109 kts 310°
2026-04-26 18:13 27.46683 -82.27155 1154 ft 108 kts 297°
2026-04-26 18:13 27.46953 -82.27631 1163 ft 106 kts 299°
2026-04-26 18:14 27.47303 -82.28638 1187 ft 104 kts 282°
2026-04-26 18:14 27.47482 -82.29445 1193 ft 102 kts 282°
2026-04-26 18:14 27.47621 -82.30246 1109 ft 105 kts 278°
2026-04-26 18:14 27.47750 -82.31044 942 ft 105 kts 276°
2026-04-26 18:15 27.47768 -82.31863 782 ft 105 kts 261°
2026-04-26 18:15 27.47379 -82.32551 606 ft 107 kts 220°
2026-04-26 18:15 27.46687 -82.32799 458 ft 111 kts 180°
2026-04-26 18:15 27.46016 -82.32496 450 ft 103 kts 155°
2026-04-26 18:16 27.45407 -82.32113 547 ft 95 kts 154°
2026-04-26 18:16 27.44145 -82.31470 668 ft 107 kts 150°
2026-04-26 18:16 27.43528 -82.31030 786 ft 102 kts 158°
2026-04-26 18:17 27.42832 -82.30774 832 ft 104 kts 169°
2026-04-26 18:17 27.42133 -82.30557 899 ft 108 kts 164°
2026-04-26 18:17 27.41435 -82.30284 1012 ft 103 kts 167°
2026-04-26 18:17 27.40695 -82.30186 994 ft 110 kts 185°
2026-04-26 18:18 27.39918 -82.30286 992 ft 112 kts 194°
2026-04-26 18:18 27.39136 -82.30393 997 ft 114 kts 187°
2026-04-26 18:18 27.38359 -82.30456 1037 ft 113 kts 192°
2026-04-26 18:18 27.37577 -82.30683 911 ft 120 kts 200°
2026-04-26 18:19 27.36846 -82.31156 717 ft 124 kts 225°
2026-04-26 18:19 27.36168 -82.31632 822 ft 111 kts 210°
2026-04-26 18:19 27.35463 -82.31995 817 ft 111 kts 206°
2026-04-26 18:19 27.34687 -82.32234 729 ft 116 kts 201°
2026-04-26 18:20 27.33926 -82.32433 818 ft 109 kts 188°
2026-04-26 18:20 27.33155 -82.32399 698 ft 109 kts 176°
2026-04-26 18:20 27.32792 -82.31829 666 ft 94 kts 68°
2026-04-26 18:20 27.33125 -82.31598 498 ft 85 kts 347°
2026-04-26 18:21 27.33912 -82.31730 107 ft 84 kts 353°
2026-04-26 18:21 27.34432 -82.31752 55 ft 65 kts 348°
2026-04-26 18:21 27.34886 -82.31778 161 ft 67 kts 348°
2026-04-26 18:21 27.35338 -82.31774 323 ft 63 kts 354°
2026-04-26 18:22 27.35817 -82.31709 379 ft 76 kts 356°
2026-04-26 18:22 27.36359 -82.31612 489 ft 79 kts
2026-04-26 18:22 27.36969 -82.31470 547 ft 93 kts
2026-04-26 18:22 27.37543 -82.31076 653 ft 104 kts 44°
2026-04-26 18:23 27.37967 -82.30395 778 ft 107 kts 53°
2026-04-26 18:23 27.38367 -82.29683 891 ft 108 kts 53°
2026-04-26 18:23 27.38772 -82.28955 1001 ft 109 kts 53°
2026-04-26 18:23 27.39179 -82.28225 1117 ft 109 kts 53°
2026-04-26 18:24 27.39582 -82.27498 1223 ft 109 kts 53°
2026-04-26 18:24 27.39982 -82.26765 1337 ft 110 kts 53°
2026-04-26 18:24 27.40384 -82.26031 1444 ft 110 kts 53°
2026-04-26 18:24 27.40811 -82.25260 1421 ft 120 kts 54°
2026-04-26 18:25 27.41263 -82.24451 1417 ft 125 kts 55°
2026-04-26 18:25 27.41733 -82.23614 1409 ft 126 kts 54°
2026-04-26 18:25 27.42211 -82.22775 1413 ft 127 kts 53°
2026-04-26 18:25 27.42681 -82.21936 1415 ft 127 kts 54°
2026-04-26 18:26 27.43162 -82.21088 1410 ft 128 kts 54°
2026-04-26 18:26 27.43641 -82.20232 1414 ft 128 kts 54°
2026-04-26 18:26 27.44115 -82.19379 1417 ft 128 kts 54°
2026-04-26 18:26 27.44581 -82.18532 1416 ft 128 kts 54°
2026-04-26 18:27 27.45049 -82.17676 1501 ft 120 kts 53°
2026-04-26 18:27 27.45095 -82.16754 1428 ft 132 kts 125°
2026-04-26 18:27 27.44311 -82.16528 1336 ft 122 kts 207°
2026-04-26 18:27 27.43589 -82.16941 1397 ft 113 kts 217°
2026-04-26 18:28 27.42954 -82.17470 1362 ft 114 kts 229°
2026-04-26 18:28 27.42552 -82.18228 1301 ft 113 kts 260°
2026-04-26 18:28 27.42449 -82.19096 1285 ft 110 kts 268°
2026-04-26 18:28 27.42449 -82.19965 1222 ft 114 kts 271°
2026-04-26 18:29 27.42169 -82.20765 1207 ft 116 kts 236°
2026-04-26 18:29 27.41511 -82.21281 1241 ft 112 kts 219°
2026-04-26 18:29 27.40870 -82.21789 1254 ft 111 kts 221°
2026-04-26 18:29 27.40232 -82.22288 1259 ft 112 kts 219°
2026-04-26 18:30 27.39588 -82.22786 1254 ft 112 kts 218°
2026-04-26 18:30 27.38951 -82.23282 1255 ft 112 kts 218°
2026-04-26 18:30 27.38302 -82.23790 1258 ft 112 kts 219°
2026-04-26 18:30 27.37655 -82.24292 1260 ft 112 kts 219°
2026-04-26 18:31 27.37014 -82.24795 1265 ft 113 kts 218°
2026-04-26 18:31 27.36365 -82.25308 1260 ft 113 kts 218°
2026-04-26 18:31 27.35712 -82.25820 1263 ft 113 kts 218°
2026-04-26 18:31 27.35057 -82.26334 1260 ft 113 kts 218°
2026-04-26 18:32 27.34417 -82.26842 1262 ft 113 kts 217°
2026-04-26 18:32 27.33766 -82.27358 1260 ft 113 kts 218°
2026-04-26 18:32 27.33124 -82.27869 1257 ft 113 kts 219°
2026-04-26 18:32 27.32482 -82.28387 1251 ft 112 kts 219°
2026-04-26 18:33 27.31848 -82.28896 1252 ft 112 kts 218°
2026-04-26 18:33 27.31211 -82.29411 1247 ft 111 kts 219°
2026-04-26 18:33 27.30581 -82.29909 1255 ft 110 kts 218°
2026-04-26 18:33 27.29951 -82.30415 1253 ft 110 kts 219°
2026-04-26 18:34 27.29314 -82.30911 1250 ft 110 kts 218°
2026-04-26 18:34 27.28681 -82.31409 1255 ft 111 kts 219°
2026-04-26 18:34 27.28047 -82.31908 1255 ft 111 kts 218°
2026-04-26 18:34 27.27420 -82.32410 1252 ft 110 kts 219°
2026-04-26 18:35 27.26788 -82.32918 1262 ft 111 kts 219°
2026-04-26 18:35 27.26156 -82.33425 1255 ft 111 kts 218°
2026-04-26 18:35 27.25527 -82.33934 1265 ft 111 kts 219°
2026-04-26 18:35 27.24897 -82.34443 1257 ft 112 kts 219°
2026-04-26 18:36 27.24267 -82.34952 1256 ft 111 kts 218°
2026-04-26 18:36 27.23626 -82.35464 1267 ft 111 kts 218°
2026-04-26 18:36 27.23001 -82.35967 1268 ft 112 kts 217°
2026-04-26 18:36 27.22362 -82.36482 1258 ft 112 kts 218°
2026-04-26 18:37 27.21718 -82.36993 1269 ft 112 kts 218°
2026-04-26 18:37 27.21080 -82.37512 1275 ft 113 kts 218°
2026-04-26 18:37 27.20446 -82.38027 1273 ft 113 kts 219°
2026-04-26 18:37 27.19795 -82.38554 1281 ft 114 kts 218°
2026-04-26 18:38 27.19155 -82.39069 1281 ft 114 kts 219°
2026-04-26 18:38 27.18499 -82.39597 1283 ft 114 kts 219°
2026-04-26 18:38 27.17853 -82.40112 1281 ft 114 kts 218°
2026-04-26 18:38 27.17205 -82.40636 1293 ft 113 kts 218°
2026-04-26 18:39 27.16565 -82.41157 1273 ft 113 kts 218°
2026-04-26 18:39 27.15927 -82.41678 1279 ft 113 kts 219°
2026-04-26 18:39 27.15289 -82.42202 1279 ft 113 kts 219°
2026-04-26 18:39 27.14659 -82.42719 1281 ft 112 kts 219°
2026-04-26 18:40 27.14006 -82.43233 1251 ft 115 kts 214°
2026-04-26 18:40 27.13289 -82.43685 1123 ft 122 kts 220°
2026-04-26 18:40 27.12612 -82.44235 1087 ft 120 kts 215°
2026-04-26 18:40 27.11903 -82.44750 1045 ft 118 kts 215°
2026-04-26 18:41 27.11218 -82.45258 1023 ft 117 kts 214°
2026-04-26 18:41 27.10546 -82.45775 950 ft 121 kts 210°
2026-04-26 18:41 27.09733 -82.45906 680 ft 114 kts 183°
2026-04-26 18:41 27.09131 -82.45817 705 ft 79 kts 168°
2026-04-26 18:42 27.08614 -82.45582 547 ft 80 kts 159°
2026-04-26 18:42 27.08132 -82.45243 391 ft 81 kts 154°
2026-04-26 18:42 27.07721 -82.44830 158 ft 80 kts 140°
2026-04-26 18:42 27.07361 -82.44408 22 ft 66 kts 145°
2026-04-26 18:43 27.07078 -82.44107 13 ft 58 kts 133°
2026-04-26 18:43 27.06778 -82.43716 130 ft 69 kts 139°
2026-04-26 18:43 27.06427 -82.43376 276 ft 68 kts 178°
2026-04-26 18:43 27.06085 -82.43707 354 ft 77 kts 258°
2026-04-26 18:44 27.06393 -82.44264 445 ft 92 kts 316°
2026-04-26 18:44 27.06954 -82.44612 560 ft 99 kts 339°
2026-04-26 18:44 27.07592 -82.44833 753 ft 93 kts 340°
2026-04-26 18:44 27.08200 -82.45038 915 ft 92 kts 338°
2026-04-26 18:45 27.08814 -82.45232 1057 ft 93 kts 339°
2026-04-26 18:45 27.09456 -82.45393 1175 ft 95 kts 341°
2026-04-26 18:45 27.10119 -82.45584 1248 ft 101 kts 344°
2026-04-26 18:45 27.10813 -82.45751 1330 ft 102 kts 345°
2026-04-26 18:46 27.11546 -82.45775 1359 ft 111 kts 13°
2026-04-26 18:46 27.12277 -82.45676 1491 ft 102 kts 351°
2026-04-26 18:46 27.13000 -82.45795 1512 ft 107 kts 341°
2026-04-26 18:46 27.13697 -82.46070 1583 ft 105 kts 337°
2026-04-26 18:47 27.14405 -82.46316 1636 ft 106 kts 340°
2026-04-26 18:47 27.15119 -82.46558 1688 ft 106 kts 338°
2026-04-26 18:47 27.15853 -82.46742 1696 ft 110 kts 345°
2026-04-26 18:47 27.16594 -82.46937 1747 ft 107 kts 340°
2026-04-26 18:48 27.17309 -82.47192 1743 ft 110 kts 340°
2026-04-26 18:48 27.18059 -82.47460 1710 ft 114 kts 339°
2026-04-26 18:48 27.18806 -82.47748 1689 ft 114 kts 338°
2026-04-26 18:48 27.19571 -82.48080 1614 ft 117 kts 333°
2026-04-26 18:49 27.20317 -82.48460 1573 ft 117 kts 333°
2026-04-26 18:49 27.21042 -82.48869 1549 ft 116 kts 329°
2026-04-26 18:49 27.21729 -82.49281 1602 ft 110 kts 328°
2026-04-26 18:49 27.22416 -82.49702 1593 ft 111 kts 329°
2026-04-26 18:50 27.23101 -82.50085 1643 ft 107 kts 331°
2026-04-26 18:50 27.23804 -82.50374 1648 ft 110 kts 339°
2026-04-26 18:50 27.24553 -82.50608 1706 ft 104 kts 343°
2026-04-26 18:50 27.25253 -82.50805 1764 ft 106 kts 341°
2026-04-26 18:51 27.25988 -82.51070 1705 ft 112 kts 338°
2026-04-26 18:51 27.26747 -82.51266 1724 ft 111 kts 346°
2026-04-26 18:51 27.27518 -82.51426 1698 ft 112 kts 344°
2026-04-26 18:51 27.28267 -82.51673 1659 ft 115 kts 337°
2026-04-26 18:52 27.29021 -82.51955 1713 ft 109 kts 339°
2026-04-26 18:52 27.29764 -82.52165 1695 ft 111 kts 344°
2026-04-26 18:52 27.30533 -82.52371 1677 ft 112 kts 339°
2026-04-26 18:52 27.31273 -82.52633 1696 ft 110 kts 340°
2026-04-26 18:53 27.32042 -82.52866 1528 ft 124 kts 343°
2026-04-26 18:53 27.32900 -82.53101 1391 ft 126 kts 343°
2026-04-26 18:53 27.33728 -82.53365 1310 ft 123 kts 336°
2026-04-26 18:53 27.34516 -82.53738 1190 ft 126 kts 334°
2026-04-26 18:54 27.35346 -82.54090 1078 ft 125 kts 336°
2026-04-26 18:54 27.36137 -82.54394 992 ft 113 kts 339°
2026-04-26 18:54 27.36876 -82.54653 859 ft 106 kts 338°
2026-04-26 18:54 27.37588 -82.54787 801 ft 101 kts 10°
2026-04-26 18:55 27.38205 -82.54330 648 ft 108 kts 37°
2026-04-26 18:55 27.38777 -82.53823 603 ft 100 kts 32°
2026-04-26 18:55 27.39330 -82.53357 574 ft 94 kts 34°
2026-04-26 18:55 27.39876 -82.53230 630 ft 76 kts 325°
2026-04-26 18:56 27.40251 -82.53588 618 ft 73 kts 313°
2026-04-26 18:56 27.40532 -82.54049 504 ft 68 kts 267°
2026-04-26 18:56 27.40352 -82.54550 257 ft 73 kts 231°
2026-04-26 18:56 27.40001 -82.54890 66 ft 59 kts 223°
2026-04-26 18:57 27.39730 -82.55131 20 ft 40 kts 220°
2026-04-26 18:57 27.39599 -82.55241 20 ft 27 kts 228°
2026-04-26 18:57 27.39482 -82.55268 20 ft 10 kts 138°
2026-04-26 18:57 27.39464 -82.55208 20 ft 10 kts 41°
2026-04-26 18:58 27.39507 -82.55141 20 ft 11 kts 95°
2026-04-26 18:58 27.39505 -82.55037 20 ft 16 kts 88°
2026-04-26 18:58 27.39502 -82.54902 20 ft 13 kts 96°
2026-04-26 18:58 27.39429 -82.54875 20 ft 12 kts 178°
2026-04-26 18:59 27.39364 -82.54822 20 ft 12 kts 167°
2026-04-26 18:59 27.39336 -82.54801 20 ft 0 kts 60°
2026-04-26 18:59 27.39345 -82.54797 20 ft 1 kts 348°
2026-04-26 18:59 27.39350 -82.54805 20 ft 0 kts 271°